Hourly Data Report for November 06, 2003

TORONTO CITY
ONTARIO

43°40'00.000" N
79°24'00.000" W
112.50 m
6158355
71508
XTO

Download Data

Hourly Data (November 2003)
Hourly Data Report for November 6, 2003
TIME
LST
Temp Definition
°C
Dew Point Definition
°C
Rel Hum Definition
%
Precip. Amount Definition
mm

Wind Dir Definition
10's deg

Wind Spd Definition
km/h
Visibility Definition
km
Stn Press Definition
kPa
Hmdx Definition


Wind Chill Definition


Weather Definition


00:00 4.7 0.9 76   LegendMM LegendMM LegendMM 100.88     LegendNANA
01:00 4.7 1.0 77   LegendMM LegendMM LegendMM 100.93     LegendNANA
02:00 3.8 0.5 79   LegendMM LegendMM LegendMM 100.94     LegendNANA
03:00 3.1 0.7 84   LegendMM LegendMM LegendMM 100.95     LegendNANA
04:00 3.4 1.0 84   LegendMM LegendMM LegendMM 100.92     LegendNANA
05:00 3.6 1.0 83   LegendMM LegendMM LegendMM 100.92     LegendNANA
06:00 3.8 1.1 83   LegendMM LegendMM LegendMM 100.94     LegendNANA
07:00 3.7 1.3 84   LegendMM LegendMM LegendMM 100.99     LegendNANA
08:00 4.4 1.2 80   LegendMM LegendMM LegendMM 100.97     LegendNANA
09:00 5.3 1.4 76   LegendMM LegendMM LegendMM 101.07     LegendNANA
10:00 6.5 1.2 69   LegendMM LegendMM LegendMM 100.99     LegendNANA
11:00 6.9 0.6 64   LegendMM LegendMM LegendMM 100.89     LegendNANA
12:00 7.4 1.1 64   LegendMM LegendMM LegendMM 100.88     LegendNANA
13:00 7.1 2.0 70   LegendMM LegendMM LegendMM 100.84     LegendNANA
14:00 7.3 1.9 69   LegendMM LegendMM LegendMM 100.80     LegendNANA
15:00 6.9 2.1 71   LegendMM LegendMM LegendMM 100.79     LegendNANA
16:00 6.8 2.7 75   LegendMM LegendMM LegendMM 100.77     LegendNANA
17:00 6.5 2.8 77   LegendMM LegendMM LegendMM 100.76     LegendNANA
18:00 6.8 2.9 76   LegendMM LegendMM LegendMM 100.74     LegendNANA
19:00 6.7 2.6 75   LegendMM LegendMM LegendMM 100.75     LegendNANA
20:00 6.8 2.8 76   LegendMM LegendMM LegendMM 100.72     LegendNANA
21:00 6.9 3.0 76   LegendMM LegendMM LegendMM 100.72     LegendNANA
22:00 6.9 3.3 78   LegendMM LegendMM LegendMM 100.75     LegendNANA
23:00 6.7 2.5 75   LegendMM LegendMM LegendMM 100.77     LegendNANA

Notes on Data Quality.

Legend

  • E = Estimated
  • M = Missing
  • NA = Not Available*
  • [empty] = Indicates an unobserved value
Date modified: